Location: Unspecified
(51.0459°N, 0.0000°E)
Time: 16:41:18
(UTC+00:00)

ISS - Pass Details

Date: 29 May 2019
Orbit: 407 x 418 km, 51.6° (Epoch: 20 June)

Event Time Altitude Azimuth Distance (km) Brightness Sun altitude
Rises 22:52:53 0° 282° (WNW) 2,361 0.4 -15.9°
Reaches altitude 10° 22:55:29 10° 261° (W) 1,496 -0.9 -16.0°
Enters shadow 22:57:13 16° 230° (SW) 1,172 -1.7 -16.1°
